GFSGL_925_rhum_102.txt.gz
RH
82 82 82 81 79 72 80 86 84 80 79 84 76 72 76 72 71 70 71 66 64 65 71 78 74 71 80 84 84 88 90 95 94 83 82 84 91 89 90 86 83 84 80
77 78 76 76 76 75 78 72 69 77 76 72 79 80 78 74 67 68 67 72 74 75 76 78 78 78 80 82 84 92 100 99 99 95 94 97 96 98 97 95 92 92 88
67 75 77 74 70 73 72 72 74 73 72 68 68 72 72 69 67 66 68 69 70 71 72 71 71 73 78 86 92 99 100 100 100 100 98 98 100 100 100 100 100 100 100
62 67 72 75 74 72 69 68 68 70 70 67 65 65 64 65 66 66 66 67 68 71 74 81 88 95 99 99 100 99 99 100 100 100 100 100 100 100 100 100 100 100 99
54 62 67 72 72 71 71 72 70 70 69 69 69 68 68 68 69 71 71 71 80 88 96 100 99 100 98 100 97 96 95 95 99 99 99 99 99 98 99 100 100 100 100
54 56 58 65 68 68 69 71 72 73 72 71 69 72 78 84 92 75 72 84 96 100 100 99 100 99 100 98 97 93 90 93 98 99 100 100 100 100 100 100 100 99 99
57 57 58 61 64 66 68 70 72 73 87 87 89 90 96 99 100 99 97 100 99 100 100 100 99 96 92 90 89 89 87 92 94 95 98 100 100 100 100 99 100 100 100
58 56 57 60 62 64 70 89 88 94 97 100 100 100 99 99 100 100 100 100 98 98 98 97 95 96 95 93 88 87 89 89 90 91 95 98 99 99 98 100 100 99 94
54 54 55 56 92 96 99 100 100 100 100 100 100 100 99 100 100 100 96 94 94 97 98 96 91 88 87 93 97 99 100 99 97 93 96 96 91 90 88 88 94 97 92
95 97 97 99 100 100 100 100 100 100 100 100 100 100 100 100 96 92 88 87 91 95 94 83 80 81 85 99 83 81 83 91 93 85 81 82 86 94 98 98 98 99 96
100 100 100 100 99 100 100 100 100 100 100 100 100 100 98 98 100 98 97 97 100 100 99 82 80 90 84 74 64 70 88 96 90 88 84 90 96 93 90 80 78 84 96
100 100 100 100 100 100 100 100 99 100 100 100 100 100 100 96 91 91 86 87 84 82 87 86 86 85 86 82 82 88 94 83 70 81 90 97 90 90 90 88 90 89 95
98 98 99 100 100 100 99 100 100 99 98 99 99 100 100 100 98 93 86 82 89 89 89 85 78 75 83 82 89 96 82 86 95 88 87 79 75 74 74 75 76 77 73
96 97 98 99 100 100 98 97 97 97 97 96 97 98 97 95 90 88 84 80 81 85 78 73 68 67 64 66 68 69 75 71 82 77 74 77 77 73 76 76 78 73 74
96 98 99 100 100 100 100 100 100 99 99 100 100 98 98 99 91 82 73 73 67 67 68 79 78 75 68 66 65 66 69 74 76 74 81 82 81 79 81 80 79 78 78
93 95 97 97 97 97 98 100 98 96 98 100 98 96 94 89 83 78 70 68 65 69 75 80 80 74 68 66 70 74 76 84 85 87 83 83 88 86 84 82 78 82 84
92 93 96 96 97 98 97 95 95 95 92 91 89 86 85 83 77 67 64 67 65 67 75 77 76 74 70 70 78 80 86 83 87 83 86 91 91 91 85 85 83 81 81
100 99 98 98 97 97 96 93 91 91 91 88 84 84 82 81 82 79 74 69 70 67 68 74 77 78 78 79 86 90 86 92 90 89 90 93 91 94 93 88 83 84 86
98 98 98 96 94 92 91 89 84 84 84 82 81 80 82 82 83 84 86 84 81 81 77 78 80 86 85 91 87 94 88 92 91 91 94 90 95 98 91 90 92 88 85
96 89 81 77 76 78 80 81 82 86 88 91 95 91 83 81 84 89 84 85 88 91 88 90 90 92 93 91 92 93 91 87 93 93 95 97 94 88 96 96 95 95 89
87 82 77 74 76 77 78 79 82 84 83 84 81 82 82 83 86 90 93 90 94 94 93 92 89 96 90 95 92 90 86 91 91 97 96 98 95 100 98 98 97 90 89
81 81 82 82 80 78 79 78 78 78 82 91 85 83 85 86 90 91 96 90 95 93 99 94 98 95 98 98 92 91 95 95 96 98 100 96 100 100 100 100 97 98 94
78 80 81 82 84 86 87 86 85 85 87 86 87 89 88 93 92 92 99 92 94 95 95 97 96 95 100 93 96 100 96 94 95 98 100 100 100 100 100 100 100 96 95
84 85 87 89 89 81 79 77 80 84 89 90 91 90 91 93 96 99 98 94 96 97 100 96 100 100 95 100 97 93 99 100 100 100 98 99 100 100 100 100 100 100 100
89 89 89 88 87 88 88 89 91 90 91 91 92 93 93 92 97 96 99 100 99 96 98 100 100 98 100 97 99 100 100 99 96 100 100 100 100 100 100 100 100 100 96
90 91 92 92 92 92 91 90 93 91 92 94 96 96 96 99 100 95 99 100 91 99 100 100 100 100 99 100 100 100 96 100 100 100 100 100 100 100 100 100 97 100 100

GFSGL_925_rhum_105.txt.gz
RH
95 100 97 92 92 94 98 97 94 94 95 99 98 93 93 85 75 78 81 68 74 74 70 71 69 68 70 71 72 76 90 97 95 84 86 82 82 85 88 93 93 90 89
89 94 92 91 87 91 98 95 94 97 95 87 88 89 90 84 82 80 70 69 73 73 68 65 68 68 72 74 84 90 96 96 99 94 89 90 99 99 95 96 93 92 98
82 83 89 86 86 80 89 90 88 87 88 90 86 90 90 84 79 77 74 74 73 68 63 67 78 86 94 100 100 100 100 100 99 100 99 100 100 100 100 99 99 99 100
84 80 78 81 85 80 77 75 81 82 80 80 81 79 79 78 76 75 76 73 68 76 86 90 92 94 97 100 100 99 99 99 97 98 100 100 99 96 96 98 95 93 90
82 84 83 80 80 80 77 77 73 71 77 76 74 73 76 77 78 78 76 76 82 88 97 100 100 99 96 94 94 92 93 90 92 98 99 99 99 99 100 100 100 94 84
73 81 84 83 77 76 74 72 74 75 74 73 74 76 78 82 86 78 77 85 96 100 100 100 99 100 98 97 97 96 86 88 94 99 100 100 99 100 99 100 100 98 98
69 73 78 81 82 79 75 71 72 80 86 85 88 91 94 99 100 99 96 98 100 100 100 99 99 98 98 96 96 90 88 87 88 90 99 100 99 100 99 100 100 100 100
63 68 75 78 79 78 84 96 99 99 99 100 100 100 99 100 100 100 100 100 100 100 98 98 98 98 100 97 97 96 95 88 91 94 93 94 90 92 99 99 100 95 85
64 63 63 70 89 94 99 100 100 100 100 100 100 100 100 100 100 100 97 96 96 98 97 97 96 97 94 85 81 75 92 87 81 79 87 98 100 99 94 79 93 93 88
91 91 89 92 97 100 100 100 100 100 100 100 100 99 99 100 99 96 93 95 97 96 95 94 91 68 61 63 77 90 99 86 70 68 95 92 88 89 84 87 97 100 96
100 100 100 99 99 100 100 100 100 100 100 100 100 100 99 99 100 98 97 95 94 93 93 91 87 83 88 97 97 96 90 67 87 97 88 77 69 68 70 76 73 79 93
100 100 100 100 100 100 100 100 100 100 100 100 100 100 100 96 94 92 76 74 79 89 94 93 98 97 97 99 93 89 69 70 67 72 77 86 87 85 80 74 76 66 63
100 100 100 100 100 100 100 100 100 99 98 99 99 99 100 100 94 95 96 91 86 75 75 80 83 86 81 82 85 84 72 64 64 80 91 92 86 80 76 81 75 78 78
99 100 100 100 100 100 100 100 99 99 98 97 98 100 100 92 89 88 88 85 93 71 65 66 63 62 63 67 73 79 78 71 86 90 83 80 84 84 84 85 85 80 83
99 99 100 100 100 100 100 100 99 97 97 97 97 99 96 96 92 87 83 76 81 68 58 60 64 75 79 78 81 87 74 90 93 88 90 93 91 90 87 84 85 88 85
97 98 98 98 98 97 97 98 98 97 98 97 95 94 95 89 80 77 79 86 87 62 66 76 72 76 88 82 86 86 91 97 89 87 93 94 97 94 94 92 89 86 90
98 98 99 97 98 97 97 95 94 97 98 100 98 97 86 78 79 79 78 82 84 79 83 77 77 81 94 93 98 98 100 89 82 78 92 84 97 100 98 91 91 95 93
98 96 96 97 97 96 96 96 96 94 95 100 97 96 96 97 96 88 83 82 87 87 89 89 88 89 100 99 95 88 88 79 84 84 89 91 93 98 95 97 100 100 98
98 98 97 97 97 97 97 97 96 96 96 99 100 94 89 88 92 96 83 77 91 97 96 99 94 95 91 88 87 80 79 80 86 91 95 92 90 84 100 100 100 99 95
97 96 97 96 97 97 97 96 96 97 96 93 94 97 90 86 80 82 88 88 88 91 90 93 97 90 92 87 84 79 82 87 96 98 96 90 84 87 100 100 100 100 99
97 96 89 90 92 92 92 91 90 93 93 94 90 86 86 92 93 90 94 94 97 97 89 91 94 92 88 87 83 87 93 90 90 91 93 94 95 100 100 100 100 100 100
93 93 96 98 97 97 97 93 86 86 88 93 89 86 84 88 93 92 92 92 95 92 88 88 88 96 97 89 92 96 91 89 99 100 100 98 98 100 99 100 100 100 100
89 92 94 96 96 93 94 94 96 96 94 89 88 92 92 90 91 91 86 87 88 91 91 87 94 97 96 94 93 93 99 100 100 100 98 99 100 100 100 100 100 100 100
88 89 89 88 88 89 91 94 92 94 96 90 90 93 98 99 100 98 94 90 85 77 86 97 100 100 99 95 96 100 100 100 99 99 100 100 100 100 100 100 100 100 100
91 91 95 98 98 98 95 91 92 91 92 93 96 99 100 96 90 98 97 92 91 82 97 100 100 98 97 99 99 100 100 98 100 100 100 100 100 100 100 100 100 100 100
99 100 99 95 92 91 93 93 93 95 97 93 92 100 100 93 85 98 97 95 80 88 91 91 94 99 100 97 96 100 100 100 97 92 99 100 100 100 100 100 100 100 100

GFSGL_925_rhum_108.txt.gz
RH
90 94 95 100 98 98 97 97 98 98 99 99 100 100 100 90 92 91 89 88 86 78 71 71 61 59 67 64 65 71 83 91 92 84 82 80 86 86 89 88 94 100 97
86 95 95 99 100 96 94 95 96 99 100 100 99 98 100 100 94 92 92 91 78 74 68 72 70 63 72 71 83 87 92 96 100 96 96 98 100 99 100 96 97 100 99
89 95 96 97 96 99 97 96 97 97 98 100 99 97 96 93 90 90 86 82 80 78 80 82 82 80 88 100 100 100 100 100 100 100 100 97 99 98 90 91 91 88 84
90 98 100 99 96 96 98 99 98 95 95 95 94 92 88 88 85 80 78 83 84 89 90 91 98 100 100 100 100 100 99 98 96 99 99 98 96 98 96 97 95 91 80
87 82 96 95 93 89 96 97 94 96 95 94 90 88 90 90 90 88 84 88 91 94 100 100 100 98 98 98 94 93 93 94 96 96 99 99 100 100 100 100 100 97 83
88 88 82 88 89 87 83 89 92 93 94 94 99 100 100 98 94 92 89 91 100 100 100 100 97 94 95 97 96 94 93 96 98 96 99 99 99 100 99 99 96 97 95
89 89 88 84 88 89 85 85 89 91 94 96 98 98 99 100 100 92 92 97 100 100 100 99 100 100 98 97 96 95 94 97 95 92 96 99 100 100 100 100 100 98 94
86 88 90 90 90 88 90 95 100 99 97 99 100 100 99 100 100 100 100 100 99 100 99 99 100 100 100 98 98 96 96 95 95 97 100 100 98 95 84 88 87 81 67
82 85 88 89 94 98 100 100 100 100 100 100 100 100 100 100 100 100 99 99 98 100 100 98 96 96 97 95 93 90 76 80 100 100 100 96 93 98 93 66 88 94 88
89 89 88 96 100 100 100 100 100 100 100 100 100 100 100 99 100 100 96 93 100 100 97 96 96 96 96 94 87 72 91 99 86 78 73 66 63 71 70 70 77 94 91
100 100 100 100 100 100 100 100 99 99 100 100 100 100 100 100 100 98 95 97 100 100 99 98 99 96 98 94 78 79 89 73 66 62 68 67 72 65 68 65 66 74 90
100 100 100 100 100 100 100 100 100 100 100 100 100 100 100 99 98 97 96 95 98 98 100 99 98 98 95 97 89 72 56 52 55 63 74 82 88 85 84 78 71 79 76
100 100 100 100 100 100 100 100 100 100 99 99 98 98 100 100 99 97 99 96 95 98 98 98 99 96 95 92 89 70 54 60 61 70 85 89 89 84 84 81 82 83 85
100 100 100 100 100 100 100 100 100 99 97 96 96 98 99 98 97 98 100 97 92 94 90 79 76 75 76 75 61 71 76 70 77 82 86 86 85 87 87 89 94 88 85
100 100 100 100 100 100 100 100 100 99 95 97 97 96 98 96 96 97 95 94 87 84 81 80 79 74 82 85 88 90 90 78 87 84 87 94 95 96 96 92 91 92 96
97 98 99 98 99 97 97 99 99 96 97 100 95 94 96 98 98 100 100 100 95 47 71 86 82 85 96 95 91 96 88 84 83 94 86 97 94 98 96 92 96 100 100
97 98 99 97 97 96 95 92 94 99 97 97 98 98 96 99 99 100 100 100 97 50 77 86 90 84 96 96 91 92 86 86 79 88 87 88 84 88 93 99 100 100 99
96 97 98 99 97 96 96 96 96 94 95 99 100 99 99 98 98 97 96 87 83 84 80 89 95 94 93 88 85 82 79 79 84 89 84 81 80 86 93 100 100 100 100
97 97 97 97 97 97 97 96 96 96 96 99 100 99 98 100 100 100 75 80 100 100 100 94 91 89 90 84 79 78 80 86 89 84 81 82 86 95 99 100 100 100 100
97 96 96 97 97 96 97 97 97 97 97 99 100 96 85 65 70 75 78 82 86 91 94 95 96 90 84 80 80 83 83 84 84 84 90 93 92 93 100 100 100 100 100
97 97 96 96 98 98 98 98 99 98 100 100 100 81 67 76 93 90 89 87 87 89 93 91 89 86 85 82 84 84 84 87 90 94 97 95 94 96 95 95 96 100 100
96 98 98 97 96 96 98 98 99 100 100 100 100 87 76 78 84 89 93 92 89 88 88 89 93 93 90 86 89 89 93 92 96 100 99 95 92 92 96 98 100 100 100
97 98 99 100 98 96 98 99 100 99 99 98 91 87 84 86 84 86 87 87 88 90 91 95 95 100 97 89 93 96 93 98 100 100 98 95 91 94 98 100 100 100 100
95 98 100 100 100 100 100 97 90 87 88 89 90 92 93 94 94 95 95 92 81 87 98 99 100 99 93 88 92 90 99 100 100 98 95 91 91 98 100 100 100 100 100
93 96 98 100 100 100 99 96 92 91 92 94 96 97 97 93 93 96 96 95 80 91 91 90 92 91 89 87 89 97 96 96 93 88 80 87 96 97 98 100 100 100 100
94 93 95 92 92 89 90 93 94 94 95 96 96 96 92 87 94 96 97 88 74 74 76 81 85 86 87 88 90 92 93 85 75 73 90 95 98 97 100 100 100 100 100

GFSGL_925_rhum_114.txt.gz
RH
96 90 95 87 85 83 91 93 100 100 99 99 100 100 100 100 100 99 98 98 90 95 96 96 98 93 92 89 91 91 93 98 99 93 91 92 98 100 100 100 100 100 98
90 92 97 94 91 91 98 98 97 100 100 100 100 100 100 100 100 100 100 100 100 100 99 100 100 97 98 97 96 93 93 97 100 96 100 100 100 100 99 97 93 84 92
97 90 97 100 97 93 96 99 97 100 100 100 100 99 99 100 100 100 100 100 100 100 99 100 98 100 100 100 99 100 100 100 100 100 100 100 100 96 95 93 89 81 85
99 97 91 100 99 95 93 98 100 99 99 100 100 100 100 100 100 100 100 100 100 100 100 100 100 100 100 99 100 100 100 100 100 100 100 99 95 92 89 88 81 61 86
99 94 86 95 97 94 99 100 100 100 100 100 100 100 100 99 100 100 100 99 99 100 100 100 100 100 100 100 100 100 100 99 97 95 96 97 100 99 100 88 72 50 74
97 92 85 99 100 98 100 100 100 100 100 100 100 100 100 100 100 100 98 100 100 100 99 100 100 100 100 100 100 98 95 93 92 96 100 99 99 99 84 77 72 80 78
100 95 88 95 100 99 100 100 100 100 100 100 100 100 100 100 100 100 100 100 100 100 100 100 100 100 96 94 92 90 92 90 88 86 94 99 95 79 66 63 54 71 65
100 95 97 98 99 98 100 100 100 100 100 100 100 100 100 100 100 100 100 100 100 100 100 100 100 100 100 94 92 91 91 88 86 83 83 89 83 59 41 46 50 36 37
98 100 97 89 100 100 100 100 100 100 100 100 100 100 100 100 100 100 100 100 100 100 100 100 100 100 99 97 89 91 95 100 100 98 92 91 90 85 44 30 68 78 74
99 98 97 100 100 100 99 100 99 100 100 100 100 100 100 99 100 100 100 99 99 100 100 100 99 99 98 94 86 89 96 98 85 62 57 48 66 64 38 49 83 90 84
100 100 100 100 100 100 100 100 100 100 100 100 100 100 100 100 100 100 100 100 100 100 100 100 100 95 94 88 77 79 85 69 56 63 67 64 62 54 58 74 76 86 93
100 100 99 100 100 100 100 100 100 100 100 100 100 100 100 100 100 100 100 99 98 96 100 99 98 100 100 100 93 92 41 38 59 62 67 76 80 77 52 43 47 68 66
100 100 100 100 100 100 100 100 100 100 100 100 100 100 100 100 100 100 99 97 94 95 98 98 100 100 100 97 84 31 27 30 38 58 85 75 57 47 42 44 44 44 43
100 100 100 99 100 99 98 98 98 99 98 98 97 97 99 100 99 100 100 99 97 97 97 95 94 93 88 87 62 44 42 48 53 61 61 51 49 54 56 55 66 62 53
100 100 99 99 100 100 100 100 100 99 96 97 98 97 96 99 100 95 94 96 96 96 95 96 97 96 93 89 85 86 71 51 50 53 53 58 61 63 62 64 77 92 96
99 99 99 100 100 100 100 100 98 96 92 93 97 91 98 100 100 99 98 96 97 93 81 95 98 93 89 91 89 87 70 60 63 62 62 64 64 67 68 73 89 98 98
99 100 99 98 97 96 94 92 95 100 97 96 96 95 96 97 99 100 100 100 100 57 83 92 85 75 77 84 80 76 84 70 64 67 68 70 73 74 77 87 92 91 93
96 98 98 99 98 97 96 96 94 93 94 98 96 96 96 99 100 100 100 95 88 81 79 79 83 82 80 70 67 67 70 68 67 71 74 77 77 81 83 86 83 89 100
98 98 98 98 98 98 98 98 97 96 96 97 98 97 100 100 100 100 96 67 83 89 86 79 65 59 59 61 66 70 67 68 73 75 76 77 77 82 84 85 88 89 98
97 96 97 97 97 97 97 96 96 96 96 98 100 100 96 88 89 81 71 69 72 72 64 61 63 61 65 71 71 67 69 78 77 74 73 73 74 80 84 88 91 98 100
97 96 96 96 96 97 96 97 97 98 100 100 100 92 78 73 80 73 69 65 64 66 64 63 65 70 72 68 68 75 78 75 73 73 72 71 69 74 87 89 93 97 100
95 96 96 98 98 100 100 100 100 99 100 100 98 86 66 65 68 70 72 73 72 71 70 68 71 71 72 75 78 76 74 75 75 72 69 65 66 73 88 92 95 99 100
95 95 97 99 100 100 100 98 95 92 94 92 82 73 63 64 65 68 71 73 76 82 84 79 76 79 78 73 71 76 80 78 76 72 66 62 65 73 91 96 99 100 100
95 96 98 98 96 98 98 97 90 80 74 70 67 67 69 72 73 75 78 82 82 86 89 87 84 80 78 80 84 82 76 74 76 75 65 62 67 75 91 98 99 99 99
93 96 97 95 91 93 88 84 79 74 71 68 69 71 74 77 79 75 70 77 84 88 85 83 81 81 80 78 76 73 76 85 78 66 61 63 65 77 92 98 99 96 96
84 84 84 79 78 76 75 74 74 72 73 74 75 77 79 82 84 83 72 62 65 71 75 75 75 73 73 74 74 76 77 71 63 59 59 61 65 77 85 94 98 97 96

GFSGL_925_rhum_117.txt.gz
RH
99 96 94 98 91 86 79 82 96 97 100 100 100 100 100 99 100 99 94 91 81 86 79 71 71 75 80 85 91 89 91 92 99 92 96 100 100 100 100 100 100 100 100
95 94 94 89 85 84 85 90 98 99 98 99 100 100 100 100 100 100 99 95 87 93 80 81 89 90 93 91 100 100 92 98 100 98 100 100 100 100 100 98 93 100 98
98 94 93 95 84 88 87 90 96 99 100 99 99 100 100 100 99 100 100 100 100 98 94 94 90 99 100 100 95 100 100 100 100 100 100 100 100 100 98 94 90 93 99
98 87 93 97 88 92 89 88 95 98 100 99 99 100 100 100 100 100 100 100 100 100 100 98 99 100 100 99 100 100 100 100 100 100 100 100 100 99 96 82 71 56 83
99 92 92 99 89 94 91 94 99 100 100 100 100 100 100 100 100 100 100 100 99 100 100 100 100 100 100 100 100 100 100 100 100 100 100 100 100 98 99 74 60 50 95
99 95 95 98 99 98 93 97 100 100 100 100 100 99 100 100 100 100 99 98 100 100 100 100 100 100 100 100 100 100 100 100 99 100 100 100 100 100 77 65 56 67 60
99 94 95 98 100 100 95 100 100 100 100 100 100 100 100 100 100 100 100 100 100 100 99 100 99 100 100 100 100 97 94 93 90 87 90 93 85 75 58 63 64 54 45
98 94 98 97 100 100 100 100 100 100 100 100 100 100 100 100 100 100 100 100 100 100 100 100 100 100 99 93 90 88 82 71 60 53 53 64 47 40 66 66 70 66 50
99 95 94 94 100 100 100 100 100 100 100 100 100 100 100 100 100 100 98 100 100 100 100 100 99 99 97 89 83 92 100 100 100 100 94 89 32 17 29 81 68 62 53
100 96 95 97 100 100 100 100 100 100 100 100 100 100 100 99 100 100 100 99 99 100 100 100 99 96 90 77 72 76 95 91 79 67 65 67 87 93 80 89 89 77 65
100 100 100 100 100 100 100 100 100 100 100 100 100 100 100 100 100 100 100 100 100 100 100 100 100 98 81 65 57 54 65 89 98 95 90 89 84 72 76 78 82 83 71
99 100 100 100 100 100 100 100 100 100 100 100 100 100 100 100 100 100 100 99 100 100 100 100 100 100 98 92 81 96 78 77 91 88 83 86 84 65 58 61 66 66 67
99 98 100 100 100 100 100 100 100 100 100 100 100 100 100 100 100 100 94 94 92 97 100 100 100 100 100 96 90 58 44 68 88 90 77 67 66 64 63 62 70 68 75
97 97 98 100 100 100 99 99 100 100 100 100 99 99 100 100 100 100 100 100 100 100 98 95 90 89 71 78 48 55 85 83 76 72 70 68 70 72 73 76 74 72 76
100 98 100 98 100 100 98 99 97 100 95 98 99 98 97 99 100 98 95 97 96 96 92 93 96 95 97 97 93 83 75 75 80 81 75 71 72 74 77 84 83 81 75
98 100 99 99 97 99 100 100 98 96 94 93 95 94 100 100 100 99 98 99 97 96 94 91 94 92 88 91 88 84 81 82 81 83 87 85 86 84 86 86 88 85 80
99 100 100 99 98 97 97 95 96 100 98 98 97 98 99 96 99 98 98 100 100 80 85 88 90 89 82 81 81 81 85 89 77 87 88 81 93 92 91 88 87 86 82
100 100 99 99 98 98 97 96 96 94 94 97 98 97 98 98 98 100 100 90 80 78 82 83 87 85 77 76 78 80 85 93 93 91 89 85 82 97 93 89 88 94 89
97 98 98 99 98 98 97 97 96 95 95 96 98 96 97 100 100 100 86 78 77 78 79 82 86 83 82 83 88 91 90 87 81 86 83 82 70 98 97 96 96 100 96
97 96 97 97 97 97 97 96 96 96 96 97 97 99 99 97 96 96 94 93 86 82 80 82 85 88 85 72 70 82 93 99 92 90 75 81 78 100 100 100 100 98 91
99 98 96 97 97 97 97 96 97 97 97 99 100 100 97 90 91 93 94 95 93 94 94 92 92 77 67 81 94 89 78 78 74 74 88 82 70 100 100 100 100 100 97
98 98 98 97 98 98 97 98 97 98 99 100 100 100 81 96 95 96 98 100 90 79 76 83 92 93 94 91 72 65 69 77 84 77 85 72 88 100 100 100 100 100 100
99 99 98 98 98 97 97 99 100 99 99 98 96 96 98 100 100 98 97 93 86 72 67 69 69 65 63 63 65 73 100 99 81 69 71 76 94 100 100 100 100 100 100
97 98 99 99 99 100 100 100 100 98 97 98 98 97 94 90 92 80 74 69 66 66 68 70 71 70 66 68 71 72 72 71 74 73 66 65 82 89 89 100 100 100 100
100 100 100 100 100 98 92 97 97 96 97 98 98 94 82 66 63 63 65 72 76 79 77 74 72 71 72 71 73 74 74 76 76 70 62 64 68 65 74 88 99 100 100
100 100 100 100 99 97 95 95 96 93 93 93 88 93 83 71 66 66 70 72 71 70 68 68 69 72 73 72 71 70 71 69 66 59 57 62 64 67 85 86 92 100 100

GFSGL_925_rhum_123.txt.gz
RH
81 86 96 99 96 83 76 80 84 89 91 99 100 100 100 99 100 100 99 99 97 90 78 76 71 62 59 65 69 69 67 64 72 100 100 100 100 100 100 100 99 100 99
90 88 91 92 99 86 82 77 83 86 94 99 100 100 100 100 98 100 100 100 97 92 86 79 75 70 77 90 93 79 66 59 69 97 100 100 99 100 100 99 100 100 99
89 95 92 96 100 91 85 83 87 84 83 87 95 100 100 100 100 100 100 100 97 90 86 81 75 73 88 94 88 78 74 69 68 84 100 99 99 100 100 100 100 100 95
94 100 96 97 98 88 81 83 86 84 82 84 90 90 99 100 100 99 100 100 100 98 91 82 75 82 89 95 83 68 72 83 91 83 100 100 99 100 99 99 100 96 77
93 96 98 96 97 84 82 82 91 90 88 98 100 100 99 100 100 100 100 100 100 99 98 94 90 94 92 96 75 80 83 99 100 100 100 99 100 100 98 97 93 79 58
96 87 99 97 96 84 84 89 90 92 95 99 100 100 99 99 99 100 100 100 100 100 100 100 99 100 100 95 93 86 100 99 100 98 100 99 97 96 79 62 79 98 87
96 91 94 98 94 87 89 90 91 97 100 99 100 100 99 99 99 100 100 100 100 100 100 100 100 100 100 100 99 100 100 100 100 100 98 97 96 69 39 51 58 58 65
96 95 94 100 94 81 89 94 100 100 100 100 100 100 99 100 100 100 100 100 100 100 100 100 100 100 100 99 100 99 100 100 99 97 89 68 47 45 35 39 48 53 61
94 96 98 100 87 82 94 100 100 100 100 100 100 100 100 100 100 100 99 100 100 100 100 100 100 100 100 100 97 95 85 86 64 42 33 33 34 32 48 61 86 81 41
97 100 96 98 85 92 99 100 100 100 100 100 100 100 100 100 100 100 98 99 99 100 100 99 98 99 100 98 91 86 95 99 70 50 47 40 32 61 70 73 73 56 64
100 100 99 96 100 99 100 100 100 100 100 100 100 100 100 100 100 100 100 100 100 100 100 100 100 98 94 83 69 58 62 55 55 58 61 52 47 51 52 53 58 69 53
100 99 100 100 100 100 100 100 100 100 100 100 100 100 100 100 100 100 100 100 100 100 100 100 98 98 90 69 63 79 62 61 66 64 57 52 50 51 49 51 56 55 50
100 99 100 98 100 100 100 100 100 100 100 100 100 100 100 100 100 100 100 100 100 100 100 97 97 98 98 97 98 99 77 78 89 70 50 45 46 50 55 57 56 64 67
100 99 99 96 98 100 100 100 100 100 100 100 100 100 100 100 100 100 100 100 100 100 100 100 100 99 96 98 96 92 91 78 59 52 49 49 53 58 59 62 61 63 65
98 100 100 97 96 99 100 100 100 100 100 100 100 100 99 100 100 100 100 100 100 100 100 100 98 98 98 95 84 69 62 60 60 57 55 54 56 60 63 71 68 65 59
98 98 98 99 99 98 99 100 98 97 100 99 100 100 100 99 100 100 100 100 100 98 97 96 97 93 73 61 62 64 67 66 68 70 69 68 68 72 70 71 72 70 66
99 98 98 98 98 98 97 94 95 100 100 100 100 100 100 100 99 98 98 98 96 96 96 96 92 77 72 68 67 67 70 74 75 75 79 79 76 77 74 71 73 72 69
98 96 98 98 97 97 97 96 95 93 94 97 98 96 98 98 99 98 97 95 96 96 96 91 78 67 60 59 62 67 71 76 76 80 86 88 83 78 75 71 73 79 76
98 99 98 97 98 97 97 96 96 95 95 96 97 97 97 98 96 95 96 91 78 69 67 68 64 60 60 66 78 85 86 87 88 88 88 88 89 78 77 77 77 80 73
97 97 97 97 97 96 96 96 95 95 95 96 95 96 97 96 96 96 90 76 68 66 64 64 67 74 83 88 94 97 94 90 89 85 92 93 92 84 81 81 81 78 72
96 97 97 97 96 97 96 95 96 96 95 96 97 97 96 92 90 88 85 79 77 76 77 80 85 88 89 86 83 82 82 86 87 87 88 91 95 86 84 82 81 78 75
97 97 96 96 96 96 97 96 96 97 96 95 97 95 87 85 85 85 86 90 90 89 87 86 84 84 82 83 87 90 90 92 90 91 93 91 88 85 87 83 82 84 80
96 97 96 95 96 97 96 97 97 96 93 88 87 89 92 91 90 93 94 93 92 94 96 96 95 96 98 97 94 91 88 92 99 100 98 94 87 88 92 86 83 83 85
97 96 94 96 96 96 96 96 96 90 88 90 92 92 91 93 93 95 96 99 100 100 100 100 99 100 100 100 100 100 100 100 100 100 77 100 94 89 95 88 86 87 88
98 97 96 95 96 96 94 93 90 87 87 89 90 91 92 94 96 99 100 100 100 100 100 100 100 95 94 100 100 97 64 58 55 51 91 100 100 100 99 92 92 89 88
98 96 91 88 88 85 84 84 86 87 88 90 91 92 93 94 97 100 100 100 100 100 100 100 100 94 94 89 88 53 51 49 47 46 46 76 100 98 95 94 94 92 89

GFSGL_925_rhum_126.txt.gz
RH
72 83 84 86 90 92 90 81 77 80 91 91 92 97 99 100 100 100 100 100 100 99 98 99 91 75 73 52 47 56 62 68 94 100 99 100 100 100 99 100 100 100 98
71 81 89 90 90 92 98 90 83 81 92 88 94 96 100 100 100 100 100 100 99 100 100 99 92 87 78 56 52 61 65 72 88 98 100 100 99 100 100 100 100 100 99
75 83 93 92 94 94 100 89 86 87 83 100 100 100 99 99 99 100 100 100 100 99 100 98 96 89 84 64 59 59 67 83 79 98 100 100 100 100 100 100 99 99 100
78 81 90 99 94 96 97 90 84 87 84 89 97 99 100 99 99 99 100 100 100 100 100 100 97 95 85 72 76 67 67 79 86 97 100 100 99 100 100 99 100 100 93
82 82 84 91 98 94 100 95 90 87 81 81 89 98 100 100 100 100 100 100 100 100 100 98 98 88 86 80 79 86 84 81 84 90 100 100 100 100 99 100 99 97 64
79 87 86 94 96 99 98 97 90 88 83 89 89 96 98 100 100 99 100 100 100 100 100 100 95 93 98 96 96 88 79 85 93 81 91 98 100 99 100 98 97 94 97
81 86 87 95 99 100 99 97 92 90 96 100 100 100 100 100 100 100 100 100 100 100 100 100 100 100 99 100 98 90 90 87 81 80 96 100 99 99 97 97 94 86 60
82 84 88 94 98 100 100 99 100 100 99 100 100 100 100 99 99 97 100 100 100 100 100 100 100 100 100 100 100 100 100 100 100 100 100 99 96 95 80 57 50 48 52
83 87 91 97 100 100 100 100 100 100 100 100 100 100 99 100 100 100 100 100 100 100 100 100 100 100 100 100 100 99 98 98 100 99 98 84 54 40 38 46 56 56 56
91 95 98 99 100 100 100 100 100 100 100 100 100 100 100 99 100 100 100 100 99 100 100 100 100 100 100 100 99 97 98 100 96 86 81 59 62 76 87 74 70 80 51
96 99 100 100 100 100 100 100 100 100 100 100 100 100 100 100 100 100 100 100 100 100 100 100 100 99 99 100 98 97 96 84 79 81 65 53 52 51 52 61 71 54 42
99 100 100 100 100 100 99 100 100 100 100 100 100 100 100 100 100 100 100 100 100 99 100 100 100 100 99 93 89 94 85 62 55 60 60 57 54 52 46 39 36 40 52
100 100 99 100 100 100 100 100 100 100 100 100 100 100 100 100 100 100 100 100 100 100 100 100 100 100 100 100 100 95 62 62 62 61 58 56 54 53 57 58 65 63 57
100 100 99 100 100 99 99 99 100 100 100 100 99 99 100 100 100 100 100 100 100 100 100 100 100 98 98 96 90 67 63 61 58 56 56 55 57 59 62 61 62 67 56
99 99 100 100 100 100 98 98 100 100 100 100 100 100 100 100 100 100 100 100 100 100 100 100 100 99 97 88 78 71 68 67 72 68 61 60 64 69 72 70 68 62 55
98 99 100 99 98 98 98 99 98 100 98 98 99 100 100 100 100 100 100 100 100 100 96 97 99 98 97 97 98 94 87 80 71 69 70 72 73 74 74 74 74 69 61
99 99 99 98 98 97 97 95 95 100 99 97 98 100 100 100 100 100 100 100 100 96 96 97 96 96 97 93 84 81 81 80 80 80 77 76 76 75 74 78 79 76 69
97 98 98 99 98 97 97 96 96 93 93 97 99 99 99 99 98 96 97 97 97 97 96 96 96 96 92 89 83 81 84 85 87 87 85 82 80 78 75 79 78 76 74
96 98 98 98 98 96 97 96 96 95 95 95 97 97 97 96 96 96 96 97 96 96 97 96 87 76 76 80 88 92 90 90 89 88 88 85 81 80 80 83 80 75 72
97 96 96 97 97 96 96 96 96 95 95 96 96 96 97 96 96 96 97 96 96 97 95 90 88 93 99 99 94 89 85 87 92 92 92 90 88 85 85 86 82 79 76
97 97 97 97 96 96 96 96 96 96 96 96 96 97 96 96 96 97 97 96 96 96 96 98 99 88 75 77 93 91 91 90 89 93 89 86 93 84 89 85 85 82 82
96 97 97 97 97 96 96 96 96 96 96 96 97 96 96 97 97 97 98 99 98 96 95 92 91 92 93 92 90 86 86 88 91 81 87 87 90 87 88 88 87 85 90
96 96 96 97 97 96 96 96 96 96 96 96 97 97 98 100 100 100 100 100 100 100 98 97 97 97 93 89 87 90 96 98 96 92 95 90 94 86 91 91 86 90 81
96 97 97 97 97 97 96 96 97 97 97 97 98 99 100 100 100 100 100 97 96 96 92 92 94 95 95 98 97 96 90 87 65 59 75 89 97 95 90 89 89 93 88
97 97 97 97 98 98 97 97 98 98 100 100 100 100 100 100 100 100 100 98 95 93 93 92 92 97 96 91 81 71 75 57 60 52 62 91 93 82 91 93 97 92 92
94 96 97 97 97 97 97 98 98 98 98 99 100 99 98 98 98 96 95 97 100 100 100 84 74 83 77 65 59 48 44 41 41 42 46 70 99 100 99 99 92 86 88

GFSGL_925_rhum_129.txt.gz
RH
68 70 71 78 86 90 91 94 100 90 88 84 89 87 87 90 100 100 99 100 100 100 100 100 100 94 90 93 80 73 68 60 89 100 99 100 100 100 100 100 100 100 100
74 70 75 80 88 94 92 90 97 97 91 89 90 90 87 97 99 98 100 100 100 100 100 100 100 99 92 93 91 81 76 70 89 98 100 100 100 100 100 100 100 100 98
69 68 72 83 88 97 97 92 90 100 96 97 96 93 86 98 100 99 100 100 100 100 100 100 99 99 95 98 96 94 84 80 90 98 100 100 100 100 100 100 100 100 100
76 78 80 87 90 90 97 98 94 99 100 100 98 94 86 98 100 100 100 100 100 100 100 100 99 98 98 100 98 98 98 94 97 100 100 100 100 100 100 98 100 100 100
80 84 87 90 91 90 91 100 98 100 100 99 97 98 92 91 95 100 100 100 100 100 100 100 100 100 99 97 99 98 97 98 100 100 100 99 100 100 98 100 100 99 91
81 83 83 89 91 92 97 99 98 100 100 99 99 100 100 100 100 100 99 100 100 100 100 100 100 99 95 97 94 94 85 83 99 100 100 99 100 100 100 99 100 97 96
82 84 84 88 91 92 93 94 100 100 99 96 94 97 100 100 98 99 100 100 100 100 100 100 100 100 100 100 99 97 92 78 73 73 94 99 100 99 98 100 99 96 93
82 87 90 92 94 97 98 97 100 100 98 97 97 97 98 99 100 100 100 100 100 100 100 100 100 99 100 98 99 100 99 96 94 90 89 91 92 99 100 98 95 76 44
86 90 93 96 97 98 99 100 100 100 100 100 100 100 100 100 100 100 100 100 100 100 100 100 100 100 100 100 99 100 100 99 100 100 100 100 100 98 98 96 72 78 95
91 94 97 98 100 99 100 100 100 100 100 100 100 100 100 100 100 100 100 100 100 100 100 100 100 99 99 100 99 100 97 99 98 98 99 97 96 91 76 68 80 93 94
95 99 99 100 100 100 100 100 100 99 100 100 100 100 100 100 100 100 100 100 100 100 100 100 100 100 100 100 99 98 94 95 95 95 94 93 93 93 93 94 96 92 77
99 100 100 100 100 100 100 100 100 98 100 100 100 100 100 100 100 100 100 100 100 99 100 100 100 100 100 99 99 98 96 94 94 95 93 85 73 73 72 57 49 47 32
100 100 100 100 99 100 100 100 100 100 99 98 100 100 100 100 100 100 100 100 100 99 100 100 100 100 100 100 100 97 89 77 74 75 72 64 50 41 34 30 28 27 29
100 100 99 100 99 99 100 100 99 100 99 98 99 99 100 100 100 100 100 100 100 100 100 100 100 100 100 94 85 76 73 74 74 71 71 73 63 56 65 61 54 51 48
100 100 98 98 98 98 100 100 100 100 99 99 99 100 99 100 100 100 100 100 100 100 100 100 98 90 84 79 82 86 89 84 76 76 79 78 79 70 65 64 61 52 49
99 99 98 99 98 98 97 99 99 99 97 95 97 99 99 100 100 100 100 100 100 100 97 94 90 86 90 96 100 100 98 92 92 90 90 87 84 80 72 67 59 55 52
98 97 98 98 97 98 96 97 94 98 98 96 95 97 98 100 100 100 100 100 100 97 95 96 97 98 100 99 97 96 100 99 91 90 89 82 80 75 74 72 63 58 56
96 96 97 98 97 97 97 97 97 96 94 97 98 97 97 100 99 99 100 99 99 98 97 96 96 96 96 96 97 99 99 95 91 82 75 74 76 71 68 71 71 65 64
97 96 96 96 96 96 96 96 97 96 96 96 97 97 97 97 98 98 97 96 96 96 96 96 96 96 96 96 98 98 96 92 85 82 79 76 77 78 76 76 74 72 71
96 96 96 97 96 96 96 96 96 96 96 96 96 96 97 95 96 96 97 97 96 97 96 96 97 96 95 94 93 86 83 83 83 84 81 76 78 78 76 80 78 77 79
96 96 96 96 96 96 96 96 96 96 96 96 96 96 96 96 97 96 96 96 97 97 96 96 96 94 92 91 93 94 89 85 84 88 86 85 86 85 84 84 80 84 82
95 96 96 96 96 96 96 96 97 96 96 96 97 96 96 97 96 96 96 97 97 95 94 96 100 100 99 94 91 90 89 86 79 87 86 77 83 86 86 85 83 90 78
95 96 96 96 96 96 96 96 96 96 96 97 96 96 96 97 96 96 97 99 98 98 99 98 96 95 93 92 90 84 79 76 76 80 91 91 83 92 92 84 88 86 85
93 94 96 96 96 96 96 96 97 96 96 97 97 97 97 97 96 97 100 97 96 95 93 92 91 90 88 85 82 82 83 82 77 82 84 82 73 82 87 86 92 90 86
94 96 96 97 97 96 96 97 97 96 96 96 97 97 97 98 97 96 95 94 94 94 95 94 92 90 88 86 81 70 60 54 49 50 58 71 75 68 80 88 91 89 88
94 94 95 95 96 97 97 97 97 96 97 98 100 100 99 98 98 96 95 93 92 91 90 89 86 78 74 66 63 59 40 37 39 46 53 59 79 95 98 98 94 83 88

GFSGL_925_rhum_132.txt.gz
RH
66 63 62 65 67 77 95 96 92 91 100 98 92 91 98 100 100 100 100 100 100 100 100 100 100 100 100 99 92 81 70 63 78 100 99 100 100 100 100 100 100 100 100
68 66 69 70 70 71 76 91 98 94 96 98 99 90 90 88 96 100 100 100 100 100 100 100 100 100 100 99 95 88 83 72 90 98 100 100 100 100 100 100 100 100 100
70 75 76 78 81 82 76 80 88 98 96 100 100 93 89 88 87 92 96 99 100 95 100 100 100 100 100 100 99 99 93 84 89 99 100 100 100 100 100 100 100 99 100
80 81 85 88 87 91 81 79 94 98 100 99 99 98 88 86 90 91 97 100 100 97 99 100 100 100 100 100 100 100 100 99 100 100 100 100 100 100 100 99 99 100 100
86 86 87 88 89 85 85 82 81 88 99 99 100 100 98 91 90 95 99 100 100 100 99 99 100 100 98 99 100 100 100 100 100 100 99 99 100 100 100 100 99 100 100
84 85 86 85 86 90 91 91 86 91 96 100 100 100 100 96 89 89 97 100 100 100 100 99 100 100 100 99 100 99 97 99 100 98 98 97 100 100 100 98 100 100 99
86 86 87 89 92 94 96 99 99 98 93 99 100 100 100 99 90 93 97 100 100 100 100 99 100 100 100 100 100 99 95 92 86 92 99 99 100 99 96 99 100 98 97
85 87 89 92 94 97 99 98 100 100 100 100 100 100 98 99 96 99 100 100 100 100 100 100 100 100 100 100 100 100 100 100 98 95 89 93 91 93 97 98 100 96 98
83 88 93 97 97 97 99 100 100 100 100 100 100 100 100 100 100 100 100 100 100 100 100 100 100 100 100 100 100 100 100 100 100 99 96 95 95 100 98 98 98 94 97
89 93 98 99 99 99 100 100 100 100 100 100 98 100 100 100 100 100 100 100 100 100 100 100 100 100 100 100 100 100 100 99 99 100 100 100 100 100 100 100 98 96 92
94 98 100 98 100 100 100 100 100 100 99 100 99 100 100 100 100 100 100 100 100 100 100 100 100 100 100 100 100 100 100 99 99 99 98 99 99 99 100 99 97 94 96
100 100 98 100 100 100 100 99 98 100 100 100 100 98 100 100 100 100 100 100 100 99 100 100 100 100 100 99 98 100 98 96 96 96 99 99 98 98 99 99 98 96 46
100 100 100 100 100 100 100 100 99 100 100 99 96 96 99 100 100 100 100 100 100 99 100 100 100 100 100 100 100 97 97 98 96 96 98 97 96 94 95 81 37 18 22
100 100 100 100 100 98 99 100 100 100 100 98 98 98 96 99 100 100 100 100 100 100 100 100 100 100 100 100 100 98 97 97 97 97 96 92 86 60 36 25 29 36 41
100 100 100 100 100 100 96 100 100 100 100 98 97 95 96 97 99 100 100 100 100 100 100 100 100 98 92 89 90 95 96 91 84 77 73 72 72 63 57 44 42 42 50
100 100 100 100 99 96 97 96 99 100 100 100 97 92 97 95 97 99 100 100 100 100 100 97 94 93 95 97 99 99 98 94 88 82 80 80 83 83 76 56 48 49 54
100 100 99 98 100 100 97 99 100 97 99 98 99 98 96 95 96 98 100 100 100 99 96 96 97 97 99 100 100 99 100 97 96 94 94 93 88 73 66 56 52 52 62
95 95 99 98 97 98 98 98 98 99 96 97 97 97 97 98 97 97 98 97 99 98 97 96 97 99 100 99 98 97 97 97 94 96 95 90 84 77 69 59 56 60 65
96 96 96 96 96 96 96 99 99 98 97 97 97 97 97 97 96 98 97 96 96 97 98 98 99 99 98 97 97 96 95 97 97 93 87 80 71 68 67 63 65 65 64
95 96 95 96 96 96 97 98 96 96 96 96 96 97 96 95 96 97 96 96 96 96 96 97 96 97 96 96 96 96 96 95 93 87 73 62 67 69 71 70 71 73 75
96 96 95 95 96 96 97 97 97 96 96 97 97 96 95 96 96 96 97 96 96 96 96 96 96 96 96 97 98 98 96 92 84 82 83 79 74 77 76 76 78 78 74
95 96 95 96 96 96 97 97 97 97 96 96 97 96 96 96 96 96 97 96 96 96 95 95 96 97 97 95 94 92 88 86 81 79 81 78 77 79 78 81 83 78 71
94 95 95 96 96 96 96 96 96 96 96 96 97 96 96 96 97 97 97 96 96 96 96 95 96 96 94 90 80 75 81 86 82 79 81 80 81 82 78 83 82 77 77
92 94 95 95 95 96 96 96 96 96 96 96 96 96 96 96 96 96 96 96 94 94 93 93 92 92 89 86 82 77 73 79 77 72 68 75 84 85 81 83 82 82 85
92 94 94 95 95 96 96 96 96 95 96 96 96 96 96 96 96 96 96 96 96 95 95 93 92 91 88 83 77 73 74 72 69 76 72 67 72 80 83 84 87 86 85
92 93 94 94 95 95 95 95 96 96 96 96 95 95 96 95 96 97 97 96 96 95 95 94 92 87 82 74 66 66 65 59 55 52 48 52 57 70 77 81 86 84 86

GFSGL_925_rhum_135.txt.gz
RH
73 72 68 69 70 72 72 78 91 99 98 96 97 100 96 96 100 100 100 100 100 100 100 100 100 100 100 100 100 99 95 90 86 100 99 100 100 100 100 100 100 100 100
79 78 77 73 71 77 74 69 74 85 96 97 99 100 100 100 100 100 100 100 100 100 100 100 100 100 100 100 100 100 99 97 95 98 100 100 100 100 100 100 100 100 100
82 78 77 78 87 82 71 74 72 73 91 99 97 99 100 100 100 100 100 100 100 100 100 100 100 100 100 100 100 100 98 98 97 98 100 100 100 100 100 100 100 100 100
82 83 84 83 79 77 77 74 76 77 79 92 99 99 100 100 100 99 100 100 100 100 100 99 100 98 98 100 100 100 100 100 100 100 100 100 100 100 100 99 100 100 100
87 89 88 83 83 80 82 80 78 82 83 88 97 100 100 100 100 100 99 95 98 100 97 96 94 96 98 98 100 100 100 100 100 100 99 99 100 100 99 100 100 100 100
89 86 85 87 90 89 85 90 93 94 94 89 92 98 100 100 100 100 94 94 94 99 99 98 98 92 99 100 100 100 99 99 99 98 98 97 99 100 100 100 100 100 98
84 84 86 89 93 93 95 97 99 100 100 100 99 98 100 100 99 100 96 93 99 99 99 99 100 99 100 99 100 100 100 96 83 88 97 99 100 100 99 100 100 97 96
83 86 88 92 97 98 98 99 100 99 100 100 99 99 100 100 100 96 100 100 100 100 100 100 100 100 99 100 100 100 100 100 98 98 96 93 91 98 97 97 99 98 98
88 92 94 99 98 97 98 100 100 100 100 100 99 98 99 100 100 100 100 100 100 100 100 100 100 100 100 100 100 100 100 100 100 100 98 97 100 100 98 99 99 96 97
95 99 100 98 97 98 100 100 100 100 100 100 99 99 100 99 100 100 99 100 100 100 100 100 100 100 100 99 100 100 100 100 100 100 100 100 100 100 100 100 99 96 94
100 100 99 99 99 99 100 100 100 100 100 100 100 98 100 100 100 100 99 100 99 100 100 100 100 100 100 100 100 100 100 100 100 100 100 100 100 100 100 100 100 97 96
99 99 99 99 100 100 100 100 100 100 100 100 100 98 100 100 100 98 99 100 100 100 100 100 100 100 100 100 100 100 100 100 100 99 97 99 99 100 99 99 99 99 97
100 100 100 100 100 100 100 100 100 100 100 100 100 97 98 99 99 100 99 100 100 100 100 100 100 100 100 100 100 100 99 98 99 97 98 98 97 97 98 98 99 98 97
100 100 100 100 100 100 96 100 100 100 100 100 100 99 97 100 99 99 99 100 100 100 100 100 100 100 100 100 100 100 100 98 96 96 97 98 98 96 95 95 94 96 90
100 98 100 100 98 97 92 94 100 100 100 100 100 99 98 100 98 97 99 99 100 100 100 100 100 100 100 100 100 100 100 98 98 99 99 100 100 98 94 79 48 47 62
99 97 99 99 99 99 99 89 82 100 100 100 99 100 98 94 97 95 97 96 98 99 100 100 100 100 100 100 100 100 100 99 99 98 96 94 89 81 74 59 54 65 73
100 100 99 98 97 98 97 100 100 90 94 100 99 100 100 98 100 99 97 97 97 97 98 99 99 99 100 100 99 98 97 93 90 88 86 86 78 72 71 74 76 72 68
93 94 98 96 96 96 96 100 100 100 96 98 98 98 97 97 97 98 97 97 96 96 97 97 98 99 98 99 99 99 100 100 100 96 92 88 83 82 89 90 86 75 70
99 97 96 96 96 96 96 98 98 98 98 98 94 93 96 98 99 99 96 96 96 97 98 98 98 98 98 99 99 99 99 97 98 96 96 96 94 86 87 79 68 62 62
93 96 95 96 96 96 96 96 97 100 99 99 98 97 96 92 95 96 96 96 97 97 96 95 96 96 97 96 96 96 96 96 97 98 96 93 83 69 73 69 68 70 70
95 95 95 95 96 96 96 97 98 98 97 98 98 97 96 96 97 97 96 96 96 96 96 97 96 96 96 96 95 96 96 97 96 95 94 90 78 74 72 72 71 66 65
94 95 95 96 96 96 96 96 97 98 97 97 97 96 96 96 97 97 97 96 96 96 96 96 96 96 95 95 95 96 95 95 93 91 88 83 77 74 72 72 68 63 66
91 93 94 95 96 95 95 95 96 96 97 96 96 96 96 96 96 96 96 96 96 96 96 95 95 95 94 94 94 94 93 94 90 84 84 84 80 76 73 72 68 70 74
92 93 95 96 95 95 95 96 96 96 96 96 96 96 96 96 96 96 96 96 95 96 96 95 95 95 95 95 93 91 90 89 86 78 70 70 73 74 75 76 74 73 75
94 94 95 96 95 95 95 95 96 96 96 96 96 96 96 96 96 96 96 96 95 94 96 95 95 96 95 95 94 92 88 85 82 79 72 70 73 73 73 73 74 76 78
95 95 95 95 95 95 95 95 96 96 96 96 96 96 96 96 96 96 96 95 95 96 96 96 96 93 91 90 88 87 85 81 76 69 64 63 67 73 72 73 76 77 83

GFSGL_925_rhum_141.txt.gz
RH
85 84 84 84 76 62 73 76 82 78 77 82 96 98 98 98 99 100 100 99 100 100 100 100 100 100 100 100 98 90 85 81 82 98 99 94 95 100 100 96 96 91 88
82 80 82 84 84 76 83 88 91 84 74 72 75 98 98 98 95 99 100 100 100 100 100 100 100 100 100 100 100 100 95 88 82 93 98 99 99 100 100 99 97 98 90
78 77 80 83 83 87 89 90 88 86 91 93 92 88 98 96 100 100 100 100 100 100 100 100 100 100 100 100 100 100 100 97 96 95 99 100 100 100 100 100 100 100 100
82 77 79 81 83 89 92 91 94 96 96 96 98 98 98 96 91 97 100 100 100 100 100 100 100 100 100 100 100 100 100 100 100 100 100 100 99 100 100 99 100 100 100
83 78 79 83 85 91 96 97 96 99 99 99 100 99 97 98 95 100 100 100 100 100 100 100 100 100 99 99 100 100 100 100 100 100 100 100 100 99 99 100 100 100 100
80 82 84 87 89 92 94 94 96 99 100 100 100 100 100 100 100 99 100 100 100 100 100 100 100 100 100 99 96 98 98 100 100 99 100 98 99 99 100 100 100 99 98
83 84 86 88 88 90 92 92 97 100 100 100 100 100 100 100 99 99 99 99 100 100 100 99 100 99 100 100 100 100 100 100 97 97 99 99 100 98 99 100 100 99 94
87 89 90 89 86 88 91 94 96 99 100 100 100 100 100 99 98 98 99 99 100 100 100 100 100 98 99 99 100 99 100 100 100 99 99 94 91 94 92 93 100 100 100
88 90 92 89 88 89 91 95 99 100 100 100 100 100 100 100 98 98 100 99 99 99 99 99 99 99 92 94 96 96 99 100 100 100 100 99 97 96 100 99 100 97 98
90 90 89 92 93 93 93 96 99 100 100 99 100 100 99 100 99 97 98 100 99 99 100 100 100 100 99 94 96 97 100 98 100 100 100 100 100 100 100 97 99 95 91
90 88 86 86 89 89 90 94 96 98 100 100 100 100 100 100 99 95 95 99 100 100 100 100 100 100 100 100 100 100 98 97 100 100 100 100 100 100 100 100 100 97 96
89 84 84 85 87 86 91 90 92 91 95 96 97 98 99 99 99 97 94 96 95 100 99 99 100 100 100 100 100 100 100 100 100 100 100 100 100 100 100 100 100 100 100
90 88 89 88 89 91 94 98 98 96 92 90 89 95 97 99 100 99 94 98 95 100 100 99 100 99 100 99 100 100 100 100 100 100 100 100 100 100 100 100 100 100 100
96 98 99 100 97 98 97 96 100 99 92 89 91 92 95 97 100 99 98 98 99 100 100 100 100 100 100 99 98 100 100 100 100 100 100 100 100 100 100 100 99 100 97
96 98 96 97 99 98 96 99 99 100 100 98 97 99 98 98 100 100 100 100 100 100 100 100 100 100 100 98 99 100 100 100 100 100 100 100 100 100 100 100 100 98 95
92 91 96 99 98 98 96 91 91 95 98 100 100 100 98 99 99 99 100 99 100 100 100 100 100 98 98 98 100 100 100 100 100 100 100 100 100 100 100 98 96 97 96
100 98 98 99 98 97 96 96 93 90 92 92 96 100 100 99 100 99 100 100 99 98 99 100 100 97 98 98 97 100 100 100 100 100 100 100 100 100 98 98 97 97 96
100 100 100 100 100 100 99 99 98 95 94 92 95 98 100 100 100 98 89 90 94 96 97 99 97 97 96 96 96 99 100 100 100 100 100 100 100 98 97 98 97 96 96
100 100 100 100 100 100 98 96 95 93 93 92 92 93 97 99 100 100 100 100 99 98 97 99 97 96 96 96 97 98 98 99 100 99 99 100 100 97 98 97 97 95 89
100 99 99 98 98 97 97 94 92 93 92 92 92 98 100 91 91 95 99 100 99 98 96 97 97 96 95 96 96 96 97 97 98 98 98 98 97 96 95 93 89 88 90
100 98 99 96 97 97 97 96 96 95 93 93 96 100 100 99 97 97 97 98 99 98 96 96 96 96 96 97 97 96 97 96 96 96 97 97 97 97 98 98 97 95 95
100 100 98 99 99 99 99 98 97 95 95 95 96 100 100 100 99 99 99 99 99 99 98 98 97 96 96 96 97 97 97 97 96 96 96 97 96 97 97 96 98 98 96
100 100 98 97 99 98 98 98 98 97 98 99 98 98 99 99 100 100 100 100 98 97 97 97 97 96 96 95 95 96 96 97 97 95 97 98 97 96 95 97 97 96 93
100 100 98 98 100 99 100 100 100 100 100 100 99 100 100 100 100 98 97 97 96 96 96 96 96 96 96 96 96 95 94 94 96 94 83 89 92 93 91 95 99 97 99
100 100 100 99 99 100 99 99 99 100 100 100 100 100 100 98 97 97 96 96 96 96 96 96 96 95 95 95 95 95 96 93 91 90 82 68 72 78 83 93 96 96 92
100 100 100 100 100 100 99 99 99 100 100 100 100 99 97 97 96 96 96 96 96 96 95 95 96 95 95 96 96 96 95 94 92 86 64 50 54 75 80 82 84 91 88

GFSGL_925_rhum_144.txt.gz
RH
94 94 84 78 76 75 76 76 77 78 80 83 84 90 97 94 98 100 100 100 100 100 100 99 100 100 100 100 99 95 85 77 78 72 76 80 99 99 99 99 100 88 88
98 100 90 77 74 78 76 76 78 76 78 79 79 78 86 94 98 97 98 100 99 100 100 100 100 100 100 100 100 99 94 88 82 79 92 100 100 100 100 100 100 100 99
83 89 93 92 82 80 80 80 80 79 79 78 78 81 80 85 93 95 98 100 99 100 99 98 99 100 100 100 100 100 99 95 91 86 95 100 100 100 100 100 100 100 100
81 75 77 80 80 83 82 82 85 83 82 80 80 80 83 82 85 89 99 96 99 100 100 100 100 100 100 100 100 100 100 100 98 95 99 100 99 99 100 100 100 100 100
81 76 76 80 76 78 81 80 82 85 84 85 81 81 84 84 80 100 100 100 99 97 99 100 100 100 99 100 100 100 100 100 99 98 100 100 100 99 99 99 100 100 100
80 73 74 75 74 76 78 79 80 83 83 85 83 86 89 89 96 99 99 99 100 100 99 100 100 99 100 100 100 100 99 99 99 98 99 98 100 98 100 100 99 99 100
82 77 75 77 76 76 75 76 81 84 86 86 87 90 92 96 100 99 98 100 100 100 100 99 98 99 100 100 100 100 100 100 95 98 99 99 100 98 99 100 100 99 93
82 84 82 81 78 80 78 77 78 85 88 86 90 88 92 97 99 98 95 99 100 100 100 99 99 98 95 99 100 100 100 100 99 100 99 98 96 99 95 94 100 100 100
77 78 75 76 74 75 78 81 82 82 83 87 85 89 92 98 98 98 96 100 100 100 99 98 98 100 99 100 100 99 100 99 100 100 100 99 97 94 94 99 100 99 99
78 76 72 73 70 69 73 75 77 77 78 84 87 90 95 94 96 99 99 100 100 100 100 91 93 99 100 100 100 100 100 98 100 100 100 100 100 100 100 96 99 98 97
77 73 71 71 71 70 72 72 74 77 81 85 88 89 88 95 98 98 99 100 100 100 100 100 99 99 99 100 100 100 99 94 100 100 100 100 100 100 100 100 100 99 96
77 73 72 74 74 73 76 76 79 80 83 84 86 84 84 92 98 99 98 100 99 100 100 100 99 99 99 99 100 100 100 100 100 100 100 100 100 100 100 100 100 100 99
82 83 84 82 81 83 85 84 84 89 86 84 83 83 85 88 91 94 99 99 100 99 100 100 98 99 100 99 99 99 100 100 100 100 100 100 100 100 100 100 100 100 100
86 90 90 89 90 90 88 88 85 90 88 85 86 89 91 88 93 99 100 99 98 98 99 99 99 100 100 100 100 100 100 100 100 100 100 100 100 100 100 99 100 100 98
86 86 88 88 88 88 87 89 89 90 96 94 93 96 96 91 98 100 100 99 99 99 100 100 100 100 100 100 100 100 100 100 100 100 97 100 100 100 100 100 100 100 93
84 84 87 88 88 88 87 84 85 88 89 93 95 96 96 98 100 100 100 99 99 99 100 99 100 100 100 100 98 97 99 100 100 97 99 100 100 100 100 100 100 99 96
96 91 89 89 89 89 87 87 86 83 83 86 89 91 93 94 95 98 98 99 98 91 94 95 99 100 100 99 98 97 100 99 97 98 100 100 100 100 100 100 100 98 98
96 91 92 93 92 90 90 89 89 87 85 83 85 88 90 90 89 92 95 93 86 89 93 94 97 100 100 100 99 98 98 98 98 97 100 100 100 99 99 98 96 94 94
93 91 94 94 92 90 91 89 89 86 85 84 83 83 90 91 88 91 93 92 89 88 90 93 99 100 99 100 99 96 95 96 96 96 97 98 100 97 98 97 97 96 95
91 97 90 88 87 86 87 87 86 86 85 84 84 90 93 90 84 87 89 92 90 90 93 96 98 99 98 98 100 100 96 95 96 96 96 96 98 98 97 97 95 95 96
88 87 94 86 86 87 87 86 87 85 84 84 87 92 95 92 89 89 91 90 92 93 94 97 98 98 98 98 100 100 98 96 96 96 96 96 97 97 97 97 97 94 91
89 89 87 88 87 88 87 86 87 86 85 85 87 89 93 91 91 91 94 96 98 99 98 96 95 96 98 98 100 100 98 98 97 97 96 96 97 96 97 96 96 97 95
92 90 87 85 88 88 87 86 87 87 87 88 89 90 91 93 94 94 96 98 99 99 98 99 98 97 99 100 99 99 98 98 96 96 96 97 97 96 96 96 94 93 92
90 89 88 88 88 88 88 88 87 88 88 89 91 92 94 96 97 97 99 100 100 98 98 98 98 98 99 98 98 98 96 97 95 95 95 97 98 98 98 97 96 95 93
92 90 89 89 90 89 89 88 89 89 90 92 93 95 96 98 99 100 100 100 98 97 96 97 97 97 96 96 96 96 96 94 90 93 93 93 94 97 97 96 97 98 97
89 90 90 91 90 93 92 91 89 90 92 94 96 99 100 100 100 100 100 98 97 97 97 96 96 96 95 95 96 96 96 95 94 93 91 92 97 98 99 98 98 96 95